Regional Weather Roundup
Issued by NWS

Home | Current Version | Previous Version | Graphics & Text | Print | Product List | Glossary On
Versions: 1 2 3 4 5 6 7 8 9 10 11 12 13 14 15 16 17 18 19 20 21 22 23 24 25 26 27
000
ASUS45 KCYS 221510
RWRWY

WYOMING REGIONAL WEATHER ROUNDUP
NATIONAL WEATHER SERVICE CHEYENNE WY
800 AM MST WED FEB 22 2017

NOTE:  "FAIR" INDICATES FEW OR NO CLOUDS BELOW 12,000 FEET
WITH NO SIGNIFICANT WEATHER AND/OR OBSTRUCTIONS TO VISIBILITY.

WYZ001-221600-
YELLOWSTONE NATIONAL PARK

CITY           SKY/WX    TMP DP  RH WIND       PRES   REMARKS
LK YELLOWSTONE   N/A     18  15  88 VRB3      29.88S
W YELLOWSTONE  NOT AVBL

$$
WYZ002>013-054>058-071-098>099-221600-
NORTHERN WYOMING

CITY           SKY/WX    TMP DP  RH WIND       PRES   REMARKS
JACKSON        CLOUDY    27  19  74 SW13      29.93S WCI  16
CODY           FAIR      36  16  44 W8        29.86R WCI  30
GREYBULL       FAIR      32  24  72 SE6       29.85R WCI  26
WORLAND        FAIR      33  25  72 CALM      29.86R
SHERIDAN       CLOUDY    37  23  56 VRB5      29.83R WCI  33
BUFFALO        FAIR      36  18  48 N10       29.82R WCI  28
GILLETTE       CLOUDY    37  24  59 W8        29.81R WCI  31
HULETT         FAIR      37  25  60 SW7       29.80R WCI  32
NEWCASTLE      FAIR      37  27  65 NW7       29.82R WCI  32

$$
WYZ014>020-022>026-101>103-221600-
CENTRAL WYOMING

CITY           SKY/WX    TMP DP  RH WIND       PRES   REMARKS
BIG PINEY      FAIR      18  12  77 E7        29.93F WCI   9
PINEDALE       CLOUDY    21  19  93 CALM      29.95S
DUBOIS         FAIR      21  12  68 W13       29.89R WCI   9
LANDER         FAIR      34  15  46 N3        29.87R
RIVERTON       FAIR      31  22  69 NW13      29.88S WCI  21
CASPER         FAIR      34  21  59 S17       29.89R WCI  23
DOUGLAS        FAIR      37  24  59 SW6       29.87F WCI  32

$$
WYZ021-027>030-104>119-221600-
SOUTHERN WYOMING

CITY           SKY/WX    TMP DP  RH WIND       PRES   REMARKS
EVANSTON       CLOUDY    23  20  88 S7        29.94F FOG     WCI  15
FORT BRIDGER   LGT SNOW  25  25 100 SW10      29.98F WCI  15
ROCK SPRINGS   FLURRIES  26  22  84 SW10      29.97R WCI  16
DIXON          LGT SNOW  29  28  95 CALM      30.02R VSB 3/4
RAWLINS        LGT SNOW  27  23  85 SW14      29.95S FOG     WCI  16
SARATOGA       LGT SNOW  28  28 100 W6        29.98R WCI  22
LARAMIE        LGT SNOW  28  25  88 CALM      29.92S VSB 1
CHEYENNE       FAIR      35  23  61 NW17G28   29.92R WCI  25
TORRINGTON     CLOUDY    42  24  49 W13       29.87R
PINE BLUFFS    PTSUNNY   37  23  56 NW18G32   29.90R WCI  27

$$




USA.gov is the U.S. government's official web portal to all federal, state and local government web resources and services.